Regional Weather Roundup
Issued by NWS

Home | Current Version | Previous Version | Graphics & Text | Print | Product List | Glossary Off
Versions: 1 2 3 4 5 6 7 8 9 10 11 12 13 14 15 16 17 18 19 20 21 22 23 24 25 26 27 28 29 30 31 32 33 34 35 36 37 38 39 40 41 42 43 44 45 46 47 48 49 50

000
ASUS45 KCYS 042210
RWRWY

WYOMING REGIONAL WEATHER ROUNDUP
NATIONAL WEATHER SERVICE CHEYENNE WY
400 PM MDT FRI SEP 04 2015

NOTE:  "FAIR" INDICATES FEW OR NO CLOUDS BELOW 12,000 FEET
WITH NO SIGNIFICANT WEATHER AND/OR OBSTRUCTIONS TO VISIBILITY.

WYZ001-042300-
YELLOWSTONE NATIONAL PARK

CITY           SKY/WX    TMP DP  RH WIND       PRES   REMARKS
LK YELLOWSTONE   N/A     67  29  24 SW7       29.98F
W YELLOWSTONE  NOT AVBL

$$
WYZ002>013-054>058-071-098>099-042300-
NORTHERN WYOMING

CITY           SKY/WX    TMP DP  RH WIND       PRES   REMARKS
JACKSON        SUNNY     75  30  19 SW12      29.87F
CODY           PTSUNNY   68  48  49 NE13G21   29.87F
GREYBULL       FAIR      83  43  24 N7        29.77F
WORLAND        FAIR      86  48  26 N8        29.76F
SHERIDAN       FAIR      83  47  28 N10       29.82F
BUFFALO        FAIR      83  42  23 E7        29.87F
GILLETTE       FAIR      87  43  21 SE3       29.84F
HULETT         FAIR      84  52  32 N7        29.87S
NEWCASTLE      FAIR      88  34  14 SE10      29.86S

$$
WYZ014>020-022>026-101>103-042300-
CENTRAL WYOMING

CITY           SKY/WX    TMP DP  RH WIND       PRES   REMARKS
BIG PINEY      PTSUNNY   78  22  12 SW25G35   29.96F
PINEDALE       FAIR      73  23  15 SW14G26   29.97F
DUBOIS         MOCLDY    75  21  13 SW17G28   29.94F
LANDER         FAIR      87  32  14 S14G23    29.82F
RIVERTON       FAIR      87  28  12 SW17G25   29.84F
CASPER         FAIR      89  31  12 S18       29.88F
DOUGLAS        FAIR      87  38  17 SE6       29.89F

$$
WYZ021-027>030-104>119-042300-
SOUTHERN WYOMING

CITY           SKY/WX    TMP DP  RH WIND       PRES   REMARKS
EVANSTON       FAIR      79  23  12 SW33G46   29.94F
KEMMERER       FAIR     N/A N/A N/A S28G35    29.97F
FORT BRIDGER   CLEAR     79  30  17 S24G32    29.98F
ROCK SPRINGS   FAIR      76  36  23 S26G37    29.97F
DIXON          TSTM      60  53  77 W6        30.12R
RAWLINS        CLOUDY    71  41  33 SW32G43   30.04R
SARATOGA       FAIR      70  41  35 SE18G28   30.07F
LARAMIE        FAIR      71  42  35 CALM      30.12F
CHEYENNE       FAIR      81  37  20 S12G25    30.02F
TORRINGTON     FAIR      91  38  15 SE9       29.85F
PINE BLUFFS    FAIR      88  32  13 S9G18     29.95S

$$


USA.gov is the U.S. government's official web portal to all federal, state and local government web resources and services.